Regional Weather Roundup
Issued by NWS

Home | Current Version | Previous Version | Graphics & Text | Print | Product List | Glossary On
Versions: 1 2 3 4 5 6 7 8 9 10 11 12 13 14 15 16 17 18 19 20 21 22 23 24 25 26 27 28 29 30 31 32 33 34 35 36 37 38 39 40 41 42 43 44 45 46 47 48 49 50
000
ASUS43 KLSX 241059
RWRMO

WEATHER SUMMARY FOR MISSOURI
NATIONAL WEATHER SERVICE SPRINGFIELD MO
600 AM CDT SUN MAY 24 2015

NOTE: "FAIR" INDICATES FEW OR NO CLOUDS BELOW 12,000 FEET WITH NO
       SIGNIFICANT WEATHER AND/OR OBSTRUCTIONS TO VISIBILITY.
       CURRENT SKY AND/OR WEATHER CONDITIONS ARE NOT AVAILABLE FOR
       CHILLICOTHE AND FARMINGTON.

MOZ001>031-035>038-043-044-053-054-241200-
...NORTHERN AND WESTERN MISSOURI...

CITY           SKY/WX    TMP DP  RH WIND       PRES   REMARKS
KANSAS CTY INT LGT RAIN  62  61  96 SE10      29.87F
KANSAS C DTWN  CLOUDY    66  61  84 S10G21    29.87S
LEE`S SUMMIT   CLOUDY    64  62  93 S10       29.89R
ST JOSEPH      LGT RAIN  61  60  97 SE7       29.87F FOG
KIRKSVILLE     LGT RAIN  61  59  93 E13       30.01F

$$
MOZ066>068-077>081-088>096-101>105-241200-
...SOUTHWEST MISSOURI...

CITY           SKY/WX    TMP DP  RH WIND       PRES   REMARKS
SPRINGFIELD    LGT RAIN  65  62  90 SE14      29.97R
JOPLIN         RAIN      64  63  96 SE13      29.90F FOG

$$
MOZ032>034-039>042-045>050-055>058-069>072-241200-
...CENTRAL MISSOURI...

CITY           SKY/WX    TMP DP  RH WIND       PRES   REMARKS
COLUMBIA       CLOUDY    64  55  72 E10       30.00F
JEFFERSON CITY CLOUDY    67  54  63 E10       29.99F
ROLLA          CLOUDY    65  56  72 SE10      30.01S
SEDALIA        LGT RAIN  61  58  90 E8        29.96F
OSAGE BEACH    CLOUDY    66  55  68 SE8       29.98F

$$
MOZ051-052-059>065-241200-
...EAST CENTRAL MISSOURI...

CITY           SKY/WX    TMP DP  RH WIND       PRES   REMARKS
ST LOUIS INTL  MOCLDY    65  54  67 E10       30.08F
SPIRIT OF STL  CLOUDY    65  55  70 SE7       30.06F
ST CHARLES     MOCLDY    63  54  72 E8        30.07F

$$
MOZ072>076-082>087-097>100-106>115-241200-
...SOUTH CENTRAL AND SOUTHEAST MISSOURI...

CITY           SKY/WX    TMP DP  RH WIND       PRES   REMARKS
CAPE GIRARDEAU MOCLDY    66  59  78 SE12      30.11S
FARMINGTON     CLOUDY    64  55  72 S7        30.13R
POPLAR BLUFF   CLOUDY    68  59  73 S10       30.08S
WEST PLAINS    PTCLDY    65  56  72 SE8       30.06S

$$



USA.gov is the U.S. government's official web portal to all federal, state and local government web resources and services.